Location: Goll?ig?dem
(16.6773°N, 80.7332°E)
Time: 14:12:32
(UTC+00:00)

Cosmos 2297 - Pass Details

Date: 19 May 2025
Orbit: 835 x 857 km, 71.0° (Epoch: 17 June)

Event Time Altitude Azimuth Distance (km) Brightness Sun altitude
Rises 14:18:50 0° 335° (NNW) 3,391 7.7 -17.5°
Reaches altitude 10° 14:21:19 10° 330° (NNW) 2,458 7.0 -18.1°
Maximum altitude 14:26:47 52° 255° (WSW) 1,046 4.4 -19.2°
Enters shadow 14:31:59 11° 181° (S) 2,367 5.8 -20.3°
